This demonstration page uses our WeatherBlox Daily Observations layout. Learn more.

Hourly Observations for January 23, 2016

Temp ( °F °C ) Dew Point ( °F °C ) Humidity (%) Winds ( mph kmh ) Pressure ( in mb ) Visibility ( mi km ) Precip ( " mm )
12:15 am 00:15 Cloudy 24 -4.6 22 -5.6 93 93 S 12 19 30.3 1026 10 16.0934 0 0
12:35 am 00:35 Cloudy 24 -4.7 22 -5.7 93 93 SSW 10 17 30.36 1028 10 16.0934 0 0
12:55 am 00:55 Cloudy 24 -4.5 22 -5.5 93 93 SSW 9 15 30.33 1027 10 16.0934 0 0
1:15 am 01:15 Cloudy 24 -4.7 22 -5.6 94 94 S 12 19 30.3 1026 10 16.0934 0 0
1:35 am 01:35 Cloudy 24 -4.7 22 -5.6 94 94 S 12 19 30.3 1026 10 16.0934 0 0
1:55 am 01:55 Cloudy 23 -4.8 22 -5.7 94 94 SSW 13 20 30.27 1025 10 16.0934 0 0
2:15 am 02:15 Cloudy 23 -4.8 22 -5.5 95 95 SSW 16 26 30.27 1025 10 16.0934 0 0
2:35 am 02:35 Cloudy 23 -4.8 22 -5.5 95 95 SSW 13 20 30.27 1025 7 11.26538 0 0
2:55 am 02:55 Cloudy with Mist and Fog 24 -4.7 22 -5.5 94 94 SSW 12 19 30.27 1025 4 6.43736 0 0
3:15 am 03:15 Cloudy with Mist and Fog 24 -4.7 22 -5.3 96 96 S 13 20 30.27 1025 2 3.21868 0 0
3:35 am 03:35 Cloudy with Mist and Fog 24 -4.7 22 -5.3 96 96 SSW 14 22 30.24 1024 1.25 2.011675 0 0
3:55 am 03:55 Cloudy with Mist and Fog 24 -4.6 23 -5.2 96 96 S 10 17 30.24 1024 1 1.60934 0 0
4:15 am 04:15 Cloudy with Mist and Fog 24 -4.5 23 -5.1 96 96 S 10 17 30.24 1024 0.75 1.207005 0 0
4:35 am 04:35 Cloudy with Mist and Fog 24 -4.5 23 -5 96 96 S 10 17 30.24 1024 0.75 1.207005 0 0
4:55 am 04:55 Cloudy with Mist and Fog 24 -4.5 23 -5.2 95 95 SSW 13 20 30.24 1024 1 1.60934 0 0
5:15 am 05:15 Cloudy with Mist and Fog 24 -4.6 22 -5.3 95 95 S 12 19 30.24 1024 1.25 2.011675 0 0
5:35 am 05:35 Cloudy with Mist and Fog 24 -4.5 23 -5.2 95 95 S 10 17 30.21 1023 1.25 2.011675 0 0
5:55 am 05:55 Cloudy with Mist and Fog 24 -4.5 23 -5.2 95 95 SSW 13 20 30.24 1024 1.25 2.011675 0 0
6:15 am 06:15 Cloudy with Mist and Fog 24 -4.5 23 -5.1 96 96 SSW 13 20 30.21 1023 1.25 2.011675 0 0
6:35 am 06:35 Cloudy with Mist and Fog 24 -4.3 23 -5 95 95 S 12 19 30.21 1023 0.75 1.207005 0 0
6:55 am 06:55 Cloudy with Mist and Fog 24 -4.2 23 -5 94 94 SSW 12 19 30.21 1023 1.25 2.011675 0 0
7:15 am 07:15 Cloudy with Mist and Fog 25 -4.1 23 -4.8 95 95 S 12 19 30.21 1023 1.5 2.41401 0 0
7:35 am 07:35 Cloudy with Mist and Fog 24 -4.2 23 -4.9 95 95 S 10 17 30.21 1023 1 1.60934 0 0
7:55 am 07:55 Cloudy with Mist and Fog 25 -4.1 23 -4.8 95 95 S 9 15 30.21 1023 1 1.60934 0 0
8:15 am 08:15 Cloudy with Freezing Fog 25 -4.1 23 -4.8 95 95 S 10 17 30.18 1022 0.5 0.80467 0 0
8:35 am 08:35 Cloudy with Freezing Fog 25 -4.1 23 -4.8 95 95 S 10 17 30.18 1022 0.5 0.80467 0 0
8:55 am 08:55 Cloudy with Freezing Fog 25 -4 24 -4.7 95 95 S 12 19 30.18 1022 0.5 0.80467 0 0
9:15 am 09:15 Cloudy with Freezing Fog 25 -3.9 24 -4.5 96 96 S 12 19 30.18 1022 0.5 0.80467 0 0
9:35 am 09:35 Cloudy with Freezing Fog 25 -3.7 24 -4.5 94 94 S 10 17 30.18 1022 0.25 0.402335 0 0
9:55 am 09:55 Cloudy with Freezing Fog 26 -3.5 24 -4.2 95 95 S 10 17 30.15 1021 0.25 0.402335 0 0
10:15 am 10:15 Cloudy with Freezing Fog 26 -3.3 25 -3.9 96 96 S 10 17 30.12 1020 0.5 0.80467 0 0
10:35 am 10:35 Cloudy with Freezing Fog 26 -3.1 25 -3.7 96 96 SSW 12 19 30.15 1021 0.5 0.80467 0 0
10:55 am 10:55 Cloudy with Freezing Fog 27 -2.8 26 -3.5 95 95 SSW 10 17 30.12 1020 0.5 0.80467 0 0
11:15 am 11:15 Cloudy with Mist and Fog 27 -2.6 26 -3.2 96 96 SSW 8 13 30.12 1020 1.5 2.41401 0 0
11:35 am 11:35 Cloudy with Mist and Fog 28 -2.5 27 -3 96 96 SSW 9 15 30.12 1020 3 4.82802 0 0
11:55 am 11:55 Cloudy with Mist and Fog 28 -2.2 27 -2.8 96 96 SSW 13 20 30.09 1019 4 6.43736 0 0
12:15 pm 12:15 Cloudy with Mist and Fog 28 -2 27 -2.6 96 96 SW 7 11 30.09 1019 5 8.0467 0 0
12:35 pm 12:35 Cloudy 28 -2.1 27 -2.7 96 96 SW 9 15 30.09 1019 7 11.26538 0 0
12:55 pm 12:55 Cloudy 28 -2 28 -2.5 96 96 SSW 10 17 30.06 1018 7 11.26538 0 0
1:15 pm 13:15 Cloudy 29 -1.7 28 -2.4 95 95 SSW 9 15 30.06 1018 7 11.26538 0 0
1:35 pm 13:35 Cloudy 29 -1.5 28 -2.1 96 96 SSW 8 13 30.06 1018 7 11.26538 0 0
1:55 pm 13:55 Cloudy 30 -1.2 28 -2 94 94 SSW 9 15 30 1016 10 16.0934 0 0
2:15 pm 14:15 Cloudy 30 -1 28 -2.3 91 91 SSW 10 17 30 1016 10 16.0934 0 0
2:35 pm 14:35 Mostly Cloudy 31 -0.6 28 -2.3 88 88 SSW 10 17 29.97 1015 10 16.0934 0 0
2:55 pm 14:55 Partly Cloudy 31 -0.5 28 -2.5 87 87 S 9 15 29.97 1015 10 16.0934 0 0
3:15 pm 15:15 Sunny 31 -0.6 28 -2.4 88 88 S 8 13 29.97 1015 10 16.0934 0 0
3:35 pm 15:35 Sunny 31 -0.5 28 -2.4 87 87 S 8 13 29.97 1015 10 16.0934 0 0
3:55 pm 15:55 Sunny 32 -0.1 28 -2.3 85 85 S 7 11 29.97 1015 10 16.0934 0 0
4:15 pm 16:15 Sunny 32 0 28 -2.4 84 84 S 8 13 29.97 1015 10 16.0934 0 0
4:35 pm 16:35 Sunny 32 -0.1 28 -2.5 84 84 S 6 9 29.97 1015 10 16.0934 0 0
4:55 pm 16:55 Sunny 32 -0.2 28 -2.4 85 85 S 5 7 29.97 1015 10 16.0934 0 0
5:15 pm 17:15 Sunny 31 -0.4 28 -2.4 87 87 S 7 11 29.97 1015 10 16.0934 0 0
5:35 pm 17:35 Sunny 31 -0.5 28 -2.3 88 88 S 9 15 29.97 1015 10 16.0934 0 0
5:55 pm 17:55 Clear 31 -0.5 28 -2.3 88 88 S 7 11 29.97 1015 10 16.0934 0 0
6:15 pm 18:15 Clear 31 -0.5 28 -2.3 88 88 S 8 13 29.97 1015 10 16.0934 0 0
6:35 pm 18:35 Clear 30 -0.9 28 -2.5 89 89 S 6 9 29.97 1015 10 16.0934 0 0
6:55 pm 18:55 Clear 30 -1.2 27 -2.7 90 90 S 7 11 30 1016 10 16.0934 0 0
7:15 pm 19:15 Clear 29 -1.5 27 -2.9 90 90 S 7 11 30 1016 10 16.0934 0 0
7:35 pm 19:35 Clear 28 -2 26 -3.2 92 92 S 7 11 30 1016 10 16.0934 0 0
7:55 pm 19:55 Clear 28 -2.1 26 -3.3 92 92 S 7 11 30.03 1017 10 16.0934 0 0
8:15 pm 20:15 Clear 28 -2 26 -3.2 92 92 S 7 11 30 1016 10 16.0934 0 0
8:35 pm 20:35 Clear 28 -2 26 -3.1 92 92 S 8 13 30 1016 10 16.0934 0 0
8:55 pm 20:55 Clear 28 -2 26 -3.1 92 92 S 8 13 30 1016 10 16.0934 0 0
9:15 pm 21:15 Clear 28 -2 26 -3.1 92 92 S 7 11 30 1016 10 16.0934 0 0
9:35 pm 21:35 Clear 28 -2 26 -3.1 92 92 S 6 9 30 1016 10 16.0934 0 0
9:55 pm 21:55 Clear 28 -2 26 -3.2 92 92 S 6 9 30 1016 10 16.0934 0 0
10:15 pm 22:15 Clear 28 -2 26 -3.1 92 92 SSW 5 7 30 1016 10 16.0934 0 0
10:35 pm 22:35 Clear 28 -2 26 -3.2 92 92 Calm 30 1016 10 16.0934 0 0
10:55 pm 22:55 Clear 28 -2.1 26 -3.3 92 92 S 3 6 29.97 1015 7 11.26538 0 0
11:15 pm 23:15 Clear 28 -2.2 26 -3.5 91 91 S 5 7 29.97 1015 7 11.26538 0 0
11:35 pm 23:35 Clear 28 -2.5 26 -3.6 92 92 S 5 7 29.97 1015 7 11.26538 0 0
11:55 pm 23:55 Clear 27 -3 25 -4.1 92 92 Calm 29.97 1015 7 11.26538 0 0

Powered by AerisWeather